Time,TemperatureF,DewpointF,PressureIn,WindDirection,WindDirectionDegrees,WindSpeedMPH,WindSpeedGustMPH,Humidity,HourlyPrecipIn,Conditions,Clouds,dailyrainin,SoftwareType,DateUTC
2013-05-30 00:00:00,70.8,65.0,29.95,SW,225,0.0,0.0,82,0.00,,CLR,0.02,VWS V14.01,2013-05-30 04:00:00,
2013-05-30 00:01:00,70.8,65.0,29.95,SW,225,0.0,0.0,82,0.00,,CLR,0.02,VWS V14.01,2013-05-30 04:01:00,
2013-05-30 00:05:00,70.6,65.2,29.95,SW,225,0.0,0.0,83,0.00,,CLR,0.00,VWS V14.01,2013-05-30 04:05:00,
2013-05-30 00:06:00,70.6,65.2,29.95,SW,225,0.0,0.0,83,0.00,,CLR,0.00,VWS V14.01,2013-05-30 04:06:00,
2013-05-30 00:10:00,70.4,65.0,29.95,SW,225,0.0,0.0,83,0.00,,CLR,0.00,VWS V14.01,2013-05-30 04:10:00,
2013-05-30 00:11:00,70.4,65.0,29.95,SW,225,0.0,0.0,83,0.00,,CLR,0.00,VWS V14.01,2013-05-30 04:11:00,
2013-05-30 00:15:00,70.4,65.0,29.95,SW,225,0.0,0.0,83,0.00,,CLR,0.00,VWS V14.01,2013-05-30 04:15:00,
2013-05-30 00:16:00,70.4,65.0,29.95,SW,225,0.0,0.0,83,0.00,,CLR,0.00,VWS V14.01,2013-05-30 04:16:00,
2013-05-30 00:20:00,70.3,65.2,29.95,SW,225,0.0,0.0,84,0.00,,CLR,0.00,VWS V14.01,2013-05-30 04:20:00,
2013-05-30 00:21:00,70.3,65.2,29.95,SW,225,0.0,0.0,84,0.00,,CLR,0.00,VWS V14.01,2013-05-30 04:21:00,
2013-05-30 00:25:00,70.3,65.2,29.95,SW,225,0.0,0.0,84,0.00,,CLR,0.00,VWS V14.01,2013-05-30 04:25:00,
2013-05-30 00:26:00,70.3,65.2,29.95,SW,225,0.0,0.0,84,0.00,,CLR,0.00,VWS V14.01,2013-05-30 04:26:00,
2013-05-30 00:30:00,70.1,65.1,29.95,SW,225,0.0,0.0,84,0.00,,CLR,0.00,VWS V14.01,2013-05-30 04:30:00,
2013-05-30 00:31:00,70.3,65.2,29.95,SW,225,0.0,0.0,84,0.00,,CLR,0.00,VWS V14.01,2013-05-30 04:31:00,
2013-05-30 00:35:00,70.1,65.1,29.95,SW,225,0.0,0.0,84,0.00,,CLR,0.00,VWS V14.01,2013-05-30 04:35:00,
2013-05-30 00:36:00,70.1,65.1,29.95,SW,225,0.0,0.0,84,0.00,,CLR,0.00,VWS V14.01,2013-05-30 04:36:00,
2013-05-30 00:40:00,70.1,65.1,29.95,SW,225,0.0,0.0,84,0.00,,CLR,0.00,VWS V14.01,2013-05-30 04:40:00,
2013-05-30 00:41:00,70.1,65.1,29.95,SW,225,0.0,0.0,84,0.00,,CLR,0.00,VWS V14.01,2013-05-30 04:41:00,
2013-05-30 00:45:00,69.9,65.2,29.95,SW,225,0.0,0.0,85,0.00,,CLR,0.00,VWS V14.01,2013-05-30 04:45:00,
2013-05-30 00:46:00,69.9,64.8,29.95,SW,225,0.0,0.0,84,0.00,,CLR,0.00,VWS V14.01,2013-05-30 04:46:00,
2013-05-30 00:50:00,69.8,65.1,29.95,SW,225,0.0,0.0,85,0.00,,CLR,0.00,VWS V14.01,2013-05-30 04:50:00,
2013-05-30 00:51:00,69.9,65.2,29.95,SW,225,0.0,0.0,85,0.00,,CLR,0.00,VWS V14.01,2013-05-30 04:51:00,
2013-05-30 00:55:00,69.8,65.1,29.95,SW,225,0.0,0.0,85,0.00,,CLR,0.00,VWS V14.01,2013-05-30 04:55:00,
2013-05-30 00:56:00,69.8,65.1,29.95,SW,225,0.0,0.0,85,0.00,,CLR,0.00,VWS V14.01,2013-05-30 04:56:00,
2013-05-30 01:00:00,69.6,64.9,29.95,SW,225,0.0,0.0,85,0.00,,CLR,0.00,VWS V14.01,2013-05-30 05:00:00,
2013-05-30 01:01:00,69.6,64.9,29.95,SW,225,0.0,0.0,85,0.00,,CLR,0.00,VWS V14.01,2013-05-30 05:01:00,
2013-05-30 01:05:00,69.4,65.0,29.95,SW,225,0.0,1.0,86,0.00,,CLR,0.00,VWS V14.01,2013-05-30 05:05:00,
2013-05-30 01:06:00,69.4,65.0,29.95,SW,225,0.0,0.0,86,0.00,,CLR,0.00,VWS V14.01,2013-05-30 05:06:00,
2013-05-30 01:10:00,69.4,65.0,29.95,SW,225,0.0,0.0,86,0.00,,CLR,0.00,VWS V14.01,2013-05-30 05:10:00,
2013-05-30 01:11:00,69.4,65.0,29.95,SW,225,0.0,0.0,86,0.00,,CLR,0.00,VWS V14.01,2013-05-30 05:11:00,
2013-05-30 01:15:00,69.3,64.9,29.95,SW,225,0.0,0.0,86,0.00,,CLR,0.00,VWS V14.01,2013-05-30 05:15:00,
2013-05-30 01:16:00,69.3,64.9,29.95,SW,225,0.0,0.0,86,0.00,,CLR,0.00,VWS V14.01,2013-05-30 05:16:00,
2013-05-30 01:20:00,69.1,65.1,29.95,SW,225,0.0,0.0,87,0.00,,CLR,0.00,VWS V14.01,2013-05-30 05:20:00,
2013-05-30 01:21:00,69.3,65.3,29.95,SW,225,0.0,0.0,87,0.00,,CLR,0.00,VWS V14.01,2013-05-30 05:21:00,
2013-05-30 01:25:00,69.1,65.1,29.95,SW,225,0.0,0.0,87,0.00,,CLR,0.00,VWS V14.01,2013-05-30 05:25:00,
2013-05-30 01:26:00,69.1,65.1,29.95,SW,225,0.0,0.0,87,0.00,,CLR,0.00,VWS V14.01,2013-05-30 05:26:00,
2013-05-30 01:30:00,68.9,64.9,29.95,SW,225,0.0,0.0,87,0.00,,CLR,0.00,VWS V14.01,2013-05-30 05:30:00,
2013-05-30 01:31:00,68.9,64.9,29.95,SW,225,0.0,0.0,87,0.00,,CLR,0.00,VWS V14.01,2013-05-30 05:31:00,
2013-05-30 01:35:00,68.8,64.8,29.95,SW,225,0.0,0.0,87,0.00,,CLR,0.00,VWS V14.01,2013-05-30 05:35:00,
2013-05-30 01:36:00,68.8,64.8,29.95,SW,225,0.0,0.0,87,0.00,,CLR,0.00,VWS V14.01,2013-05-30 05:36:00,
2013-05-30 01:40:00,68.6,64.9,29.95,SW,225,0.0,0.0,88,0.00,,CLR,0.00,VWS V14.01,2013-05-30 05:40:00,
2013-05-30 01:41:00,68.6,64.9,29.95,SW,225,0.0,0.0,88,0.00,,CLR,0.00,VWS V14.01,2013-05-30 05:41:00,
2013-05-30 01:45:00,68.4,64.7,29.97,SW,225,0.0,0.0,88,0.00,,CLR,0.00,VWS V14.01,2013-05-30 05:45:00,
2013-05-30 01:46:00,68.4,64.7,29.97,SW,225,0.0,0.0,88,0.00,,CLR,0.00,VWS V14.01,2013-05-30 05:46:00,
2013-05-30 01:50:00,68.3,64.6,29.97,SW,225,0.0,0.0,88,0.00,,CLR,0.00,VWS V14.01,2013-05-30 05:50:00,
2013-05-30 01:51:00,68.4,64.7,29.97,SW,225,0.0,0.0,88,0.00,,CLR,0.00,VWS V14.01,2013-05-30 05:51:00,
2013-05-30 01:55:00,68.1,64.7,29.97,SW,225,0.0,0.0,89,0.00,,CLR,0.00,VWS V14.01,2013-05-30 05:55:00,
2013-05-30 01:56:00,68.3,64.9,29.97,SW,225,0.0,0.0,89,0.00,,CLR,0.00,VWS V14.01,2013-05-30 05:56:00,
2013-05-30 02:00:00,67.9,64.5,29.97,SW,225,0.0,0.0,89,0.00,,CLR,0.00,VWS V14.01,2013-05-30 06:00:00,
2013-05-30 02:01:00,67.9,64.5,29.97,SW,225,0.0,0.0,89,0.00,,CLR,0.00,VWS V14.01,2013-05-30 06:01:00,
2013-05-30 02:05:00,67.8,64.4,29.97,SW,225,0.0,0.0,89,0.00,,CLR,0.00,VWS V14.01,2013-05-30 06:05:00,
2013-05-30 02:06:00,67.8,64.4,29.97,SW,225,0.0,0.0,89,0.00,,CLR,0.00,VWS V14.01,2013-05-30 06:06:00,
2013-05-30 02:10:00,67.6,64.6,29.97,SW,225,0.0,0.0,90,0.00,,CLR,0.00,VWS V14.01,2013-05-30 06:10:00,
2013-05-30 02:11:00,67.6,64.6,29.97,SW,225,0.0,0.0,90,0.00,,CLR,0.00,VWS V14.01,2013-05-30 06:11:00,
2013-05-30 02:15:00,67.4,64.4,29.97,SW,225,0.0,0.0,90,0.00,,CLR,0.00,VWS V14.01,2013-05-30 06:15:00,
2013-05-30 02:16:00,67.6,64.6,29.97,SW,225,0.0,0.0,90,0.00,,CLR,0.00,VWS V14.01,2013-05-30 06:16:00,
2013-05-30 02:20:00,67.3,64.3,29.97,SW,225,0.0,0.0,90,0.00,,CLR,0.00,VWS V14.01,2013-05-30 06:20:00,
2013-05-30 02:21:00,67.3,64.3,29.97,SW,225,0.0,0.0,90,0.00,,CLR,0.00,VWS V14.01,2013-05-30 06:21:00,
2013-05-30 02:25:00,67.3,64.6,29.97,SW,225,0.0,0.0,91,0.00,,CLR,0.00,VWS V14.01,2013-05-30 06:25:00,
2013-05-30 02:26:00,67.3,64.6,29.97,SW,225,0.0,0.0,91,0.00,,CLR,0.00,VWS V14.01,2013-05-30 06:26:00,
2013-05-30 02:30:00,67.1,64.4,29.97,SW,225,0.0,0.0,91,0.00,,CLR,0.00,VWS V14.01,2013-05-30 06:30:00,
2013-05-30 02:31:00,67.1,64.4,29.97,SW,225,0.0,0.0,91,0.00,,CLR,0.00,VWS V14.01,2013-05-30 06:31:00,
2013-05-30 02:35:00,66.9,64.2,29.97,SW,225,0.0,0.0,91,0.00,,CLR,0.00,VWS V14.01,2013-05-30 06:35:00,
2013-05-30 02:37:00,66.9,64.2,29.97,SW,225,0.0,0.0,91,0.00,,CLR,0.00,VWS V14.01,2013-05-30 06:37:00,
2013-05-30 02:40:00,66.9,64.5,29.97,SW,225,0.0,0.0,92,0.00,,CLR,0.00,VWS V14.01,2013-05-30 06:40:00,
2013-05-30 02:42:00,66.9,64.5,29.97,SW,225,0.0,0.0,92,0.00,,CLR,0.00,VWS V14.01,2013-05-30 06:42:00,
2013-05-30 02:45:00,66.8,64.4,29.96,SW,225,0.0,0.0,92,0.00,,CLR,0.00,VWS V14.01,2013-05-30 06:45:00,
2013-05-30 02:47:00,66.8,64.4,29.96,SW,225,0.0,0.0,92,0.00,,CLR,0.00,VWS V14.01,2013-05-30 06:47:00,
2013-05-30 02:50:00,66.8,64.4,29.96,SW,225,0.0,0.0,92,0.00,,CLR,0.00,VWS V14.01,2013-05-30 06:50:00,
2013-05-30 02:52:00,66.8,64.4,29.96,SW,225,0.0,0.0,92,0.00,,CLR,0.00,VWS V14.01,2013-05-30 06:52:00,
2013-05-30 02:55:00,66.8,64.4,29.96,SW,225,0.0,0.0,92,0.00,,CLR,0.00,VWS V14.01,2013-05-30 06:55:00,
2013-05-30 02:57:00,66.8,64.4,29.96,SW,225,0.0,0.0,92,0.00,,CLR,0.00,VWS V14.01,2013-05-30 06:57:00,
2013-05-30 03:00:00,66.8,64.7,29.97,SW,225,0.0,0.0,93,0.00,,CLR,0.00,VWS V14.01,2013-05-30 07:00:00,
2013-05-30 03:02:00,66.8,64.7,29.97,SW,225,0.0,0.0,93,0.00,,CLR,0.00,VWS V14.01,2013-05-30 07:02:00,
2013-05-30 03:05:00,66.6,64.5,29.97,SW,225,0.0,0.0,93,0.00,,CLR,0.00,VWS V14.01,2013-05-30 07:05:00,
2013-05-30 03:07:00,66.6,64.5,29.97,SW,225,0.0,0.0,93,0.00,,CLR,0.00,VWS V14.01,2013-05-30 07:07:00,
2013-05-30 03:10:00,66.4,64.3,29.97,SW,225,0.0,0.0,93,0.00,,CLR,0.00,VWS V14.01,2013-05-30 07:10:00,
2013-05-30 03:12:00,66.4,64.3,29.97,SW,225,0.0,0.0,93,0.00,,CLR,0.00,VWS V14.01,2013-05-30 07:12:00,
2013-05-30 03:17:00,66.4,64.3,29.97,SW,225,0.0,0.0,93,0.00,,CLR,0.00,VWS V14.01,2013-05-30 07:17:00,
2013-05-30 03:22:00,66.4,64.3,29.97,SW,225,0.0,0.0,93,0.00,,CLR,0.00,VWS V14.01,2013-05-30 07:22:00,
2013-05-30 03:27:00,66.4,64.3,29.97,SW,225,0.0,0.0,93,0.00,,CLR,0.00,VWS V14.01,2013-05-30 07:27:00,
2013-05-30 03:32:00,66.3,64.5,29.97,SW,225,0.0,0.0,94,0.00,,CLR,0.00,VWS V14.01,2013-05-30 07:32:00,
2013-05-30 11:45:00,86.5,65.7,30.06,SW,225,3.0,7.0,50,0.00,,CLR,0.00,VWS V14.01,2013-05-30 15:45:00,
2013-05-30 11:50:00,86.5,66.2,30.06,WSW,248,3.0,9.0,51,0.00,,CLR,0.00,VWS V14.01,2013-05-30 15:50:00,
2013-05-30 11:55:00,87.0,66.1,30.06,SW,225,3.0,7.0,50,0.00,,CLR,0.00,VWS V14.01,2013-05-30 15:55:00,
2013-05-30 12:00:00,87.2,66.9,30.06,SW,225,1.0,5.0,51,0.00,,CLR,0.00,VWS V14.01,2013-05-30 16:00:00,
2013-05-30 12:05:00,87.6,65.5,30.06,SW,225,2.0,8.0,48,0.00,,CLR,0.00,VWS V14.01,2013-05-30 16:05:00,
2013-05-30 12:10:00,87.4,64.7,30.06,WSW,248,3.0,11.0,47,0.00,,CLR,0.00,VWS V14.01,2013-05-30 16:10:00,
2013-05-30 12:15:00,87.4,65.3,30.05,SW,225,2.0,8.0,48,0.00,,CLR,0.00,VWS V14.01,2013-05-30 16:15:00,
2013-05-30 12:20:00,87.4,64.1,30.05,WNW,292,2.0,6.0,46,0.00,,CLR,0.00,VWS V14.01,2013-05-30 16:20:00,
2013-05-30 12:25:00,87.8,65.1,30.05,SW,225,2.0,7.0,47,0.00,,CLR,0.00,VWS V14.01,2013-05-30 16:25:00,
2013-05-30 12:30:00,88.0,65.9,30.05,NNE,22,2.0,6.0,48,0.00,,CLR,0.00,VWS V14.01,2013-05-30 16:30:00,
2013-05-30 12:35:00,88.4,65.0,30.05,WSW,248,2.0,7.0,46,0.00,,CLR,0.00,VWS V14.01,2013-05-30 16:35:00,
2013-05-30 12:40:00,88.8,66.0,30.05,SW,225,2.0,7.0,47,0.00,,CLR,0.00,VWS V14.01,2013-05-30 16:40:00,
2013-05-30 12:45:00,88.4,66.2,30.05,WSW,248,2.0,8.0,48,0.00,,CLR,0.00,VWS V14.01,2013-05-30 16:45:00,
2013-05-30 12:50:00,88.2,67.8,30.05,North,0,1.0,5.0,51,0.00,,CLR,0.00,VWS V14.01,2013-05-30 16:50:00,
2013-05-30 12:55:00,88.4,66.8,30.05,West,270,1.0,5.0,49,0.00,,CLR,0.00,VWS V14.01,2013-05-30 16:55:00,
2013-05-30 13:00:00,88.8,62.8,30.04,WSW,248,3.0,11.0,42,0.00,,CLR,0.00,VWS V14.01,2013-05-30 17:00:00,
2013-05-30 13:05:00,89.0,64.3,30.04,WNW,292,4.0,9.0,44,0.00,,CLR,0.00,VWS V14.01,2013-05-30 17:05:00,
2013-05-30 13:10:00,89.3,64.6,30.04,WNW,292,3.0,12.0,44,0.00,,CLR,0.00,VWS V14.01,2013-05-30 17:10:00,
2013-05-30 13:15:00,89.3,63.9,30.04,South,180,3.0,8.0,43,0.00,,CLR,0.00,VWS V14.01,2013-05-30 17:15:00,
2013-05-30 13:20:00,89.7,62.2,30.04,WSW,248,3.0,8.0,40,0.00,,CLR,0.00,VWS V14.01,2013-05-30 17:20:00,
2013-05-30 13:25:00,89.9,64.4,30.04,SW,225,4.0,12.0,43,0.00,,CLR,0.00,VWS V14.01,2013-05-30 17:25:00,
2013-05-30 13:30:00,89.9,64.4,30.04,WSW,248,3.0,11.0,43,0.00,,CLR,0.00,VWS V14.01,2013-05-30 17:30:00,
2013-05-30 13:35:00,90.1,64.6,30.04,WSW,248,3.0,10.0,43,0.00,,CLR,0.00,VWS V14.01,2013-05-30 17:35:00,
2013-05-30 13:40:00,90.3,64.8,30.04,NW,315,2.0,10.0,43,0.00,,CLR,0.00,VWS V14.01,2013-05-30 17:40:00,
2013-05-30 13:45:00,90.5,64.3,30.04,SW,225,4.0,9.0,42,0.00,,CLR,0.00,VWS V14.01,2013-05-30 17:45:00,
2013-05-30 13:50:00,90.1,62.5,30.04,SW,225,4.0,11.0,40,0.00,,CLR,0.00,VWS V14.01,2013-05-30 17:50:00,
2013-05-30 13:55:00,89.9,63.1,30.04,WSW,248,3.0,9.0,41,0.00,,CLR,0.00,VWS V14.01,2013-05-30 17:55:00,
2013-05-30 14:00:00,89.9,64.4,30.04,SW,225,4.0,9.0,43,0.00,,CLR,0.00,VWS V14.01,2013-05-30 18:00:00,
2013-05-30 14:05:00,90.1,64.6,30.04,WSW,248,3.0,13.0,43,0.00,,CLR,0.00,VWS V14.01,2013-05-30 18:05:00,
2013-05-30 14:10:00,90.3,62.7,30.04,North,0,2.0,6.0,40,0.00,,CLR,0.00,VWS V14.01,2013-05-30 18:10:00,
2013-05-30 14:15:00,90.1,61.8,30.03,WSW,248,5.0,13.0,39,0.00,,CLR,0.00,VWS V14.01,2013-05-30 18:15:00,
2013-05-30 14:20:00,90.5,65.0,30.03,SW,225,2.0,10.0,43,0.00,,CLR,0.00,VWS V14.01,2013-05-30 18:20:00,
2013-05-30 14:25:00,91.0,63.3,30.03,SW,225,2.0,8.0,40,0.00,,CLR,0.00,VWS V14.01,2013-05-30 18:25:00,
2013-05-30 14:30:00,91.2,65.6,30.03,WSW,248,3.0,10.0,43,0.00,,CLR,0.00,VWS V14.01,2013-05-30 18:30:00,
2013-05-30 14:35:00,91.0,65.4,30.03,WSW,248,3.0,7.0,43,0.00,,CLR,0.00,VWS V14.01,2013-05-30 18:35:00,
2013-05-30 14:40:00,91.0,62.6,30.03,North,0,3.0,8.0,39,0.00,,CLR,0.00,VWS V14.01,2013-05-30 18:40:00,
2013-05-30 14:45:00,90.7,62.4,30.02,WNW,292,1.0,5.0,39,0.00,,CLR,0.00,VWS V14.01,2013-05-30 18:45:00,
2013-05-30 14:50:00,91.2,67.6,30.02,West,270,1.0,6.0,46,0.00,,CLR,0.00,VWS V14.01,2013-05-30 18:50:00,
2013-05-30 14:55:00,91.4,65.1,30.02,WSW,248,3.0,9.0,42,0.00,,CLR,0.00,VWS V14.01,2013-05-30 18:55:00,
2013-05-30 15:00:00,91.4,61.5,30.02,WNW,292,3.0,9.0,37,0.00,,CLR,0.00,VWS V14.01,2013-05-30 19:00:00,
2013-05-30 15:05:00,91.2,64.9,30.02,SW,225,3.0,12.0,42,0.00,,CLR,0.00,VWS V14.01,2013-05-30 19:05:00,
2013-05-30 15:10:00,91.2,62.1,30.02,WSW,248,3.0,7.0,38,0.00,,CLR,0.00,VWS V14.01,2013-05-30 19:10:00,
2013-05-30 15:15:00,91.2,64.2,30.01,WSW,248,3.0,9.0,41,0.00,,CLR,0.00,VWS V14.01,2013-05-30 19:15:00,
2013-05-30 15:20:00,91.4,65.1,30.01,SW,225,3.0,11.0,42,0.00,,CLR,0.00,VWS V14.01,2013-05-30 19:20:00,
2013-05-30 15:25:00,91.6,65.3,30.01,West,270,3.0,9.0,42,0.00,,CLR,0.00,VWS V14.01,2013-05-30 19:25:00,
2013-05-30 15:30:00,91.6,66.0,30.01,West,270,3.0,8.0,43,0.00,,CLR,0.00,VWS V14.01,2013-05-30 19:30:00,
2013-05-30 15:35:00,91.6,66.0,30.01,North,0,3.0,8.0,43,0.00,,CLR,0.00,VWS V14.01,2013-05-30 19:35:00,
2013-05-30 15:40:00,91.6,64.6,30.01,SSW,202,3.0,8.0,41,0.00,,CLR,0.00,VWS V14.01,2013-05-30 19:40:00,
2013-05-30 15:45:00,91.4,63.7,30.01,WSW,248,3.0,7.0,40,0.00,,CLR,0.00,VWS V14.01,2013-05-30 19:45:00,
2013-05-30 15:50:00,91.6,62.4,30.01,WSW,248,2.0,6.0,38,0.00,,CLR,0.00,VWS V14.01,2013-05-30 19:50:00,
2013-05-30 15:55:00,91.8,66.1,30.01,WNW,292,2.0,6.0,43,0.00,,CLR,0.00,VWS V14.01,2013-05-30 19:55:00,
2013-05-30 16:00:00,91.8,64.8,30.01,WSW,248,3.0,7.0,41,0.00,,CLR,0.00,VWS V14.01,2013-05-30 20:00:00,
2013-05-30 16:05:00,91.6,60.9,30.01,WNW,292,2.0,6.0,36,0.00,,CLR,0.00,VWS V14.01,2013-05-30 20:05:00,
2013-05-30 16:10:00,91.6,62.4,30.01,West,270,1.0,6.0,38,0.00,,CLR,0.00,VWS V14.01,2013-05-30 20:10:00,
2013-05-30 16:15:00,91.8,65.5,30.01,West,270,2.0,7.0,42,0.00,,CLR,0.00,VWS V14.01,2013-05-30 20:15:00,
2013-05-30 16:20:00,91.6,63.9,30.01,SW,225,4.0,10.0,40,0.00,,CLR,0.00,VWS V14.01,2013-05-30 20:20:00,
2013-05-30 16:25:00,91.6,62.4,30.01,West,270,2.0,6.0,38,0.00,,CLR,0.00,VWS V14.01,2013-05-30 20:25:00,
2013-05-30 16:30:00,91.8,61.1,30.01,SW,225,2.0,6.0,36,0.00,,CLR,0.00,VWS V14.01,2013-05-30 20:30:00,
2013-05-30 16:35:00,91.4,61.5,30.01,WSW,248,4.0,13.0,37,0.00,,CLR,0.00,VWS V14.01,2013-05-30 20:35:00,
2013-05-30 16:40:00,91.2,64.9,30.01,WSW,248,3.0,8.0,42,0.00,,CLR,0.00,VWS V14.01,2013-05-30 20:40:00,
2013-05-30 16:45:00,91.4,62.2,30.01,NW,315,2.0,7.0,38,0.00,,CLR,0.00,VWS V14.01,2013-05-30 20:45:00,
2013-05-30 16:50:00,91.8,63.3,30.01,North,0,2.0,7.0,39,0.00,,CLR,0.00,VWS V14.01,2013-05-30 20:50:00,
2013-05-30 16:55:00,92.1,62.9,30.01,NNW,338,3.0,10.0,38,0.00,,CLR,0.00,VWS V14.01,2013-05-30 20:55:00,
2013-05-30 17:00:00,92.1,64.3,30.01,NW,315,2.0,7.0,40,0.00,,CLR,0.00,VWS V14.01,2013-05-30 21:00:00,
2013-05-30 17:05:00,91.4,62.2,30.01,SW,225,3.0,8.0,38,0.00,,CLR,0.00,VWS V14.01,2013-05-30 21:05:00,
2013-05-30 17:10:00,91.4,62.2,30.01,WNW,292,1.0,5.0,38,0.00,,CLR,0.00,VWS V14.01,2013-05-30 21:10:00,
2013-05-30 17:15:00,91.4,64.4,30.00,SW,225,2.0,7.0,41,0.00,,CLR,0.00,VWS V14.01,2013-05-30 21:15:00,
2013-05-30 17:20:00,91.8,63.3,30.00,WNW,292,1.0,4.0,39,0.00,,CLR,0.00,VWS V14.01,2013-05-30 21:20:00,
2013-05-30 17:25:00,91.6,63.9,30.00,WSW,248,2.0,6.0,40,0.00,,OVC005,0.00,VWS V14.01,2013-05-30 21:25:00,
2013-05-30 17:30:00,91.6,65.3,30.00,SW,225,1.0,6.0,42,0.00,,OVC005,0.00,VWS V14.01,2013-05-30 21:30:00,
2013-05-30 17:35:00,92.1,62.9,30.00,SW,225,0.0,4.0,38,0.00,,OVC005,0.00,VWS V14.01,2013-05-30 21:35:00,
2013-05-30 17:40:00,92.1,62.9,30.00,WSW,248,1.0,5.0,38,0.00,,OVC005,0.00,VWS V14.01,2013-05-30 21:40:00,
2013-05-30 17:44:00,91.8,62.6,29.99,SSW,212,0.0,1.0,38,0.00,,CLR,0.00,VWS V14.01,2013-05-30 21:44:00,
2013-05-30 17:45:00,91.8,62.6,29.99,SSW,212,0.0,1.0,38,0.00,,CLR,0.00,VWS V14.01,2013-05-30 21:45:00,
2013-05-30 17:49:00,91.6,65.3,29.99,SW,219,2.0,4.0,42,0.00,,CLR,0.00,VWS V14.01,2013-05-30 21:49:00,
2013-05-30 17:50:00,91.4,65.1,29.99,WSW,243,2.0,4.0,42,0.00,,CLR,0.00,VWS V14.01,2013-05-30 21:50:00,
2013-05-30 17:54:00,91.4,64.4,29.99,WSW,243,2.0,5.0,41,0.00,,CLR,0.00,VWS V14.01,2013-05-30 21:54:00,
2013-05-30 17:55:00,91.4,63.0,29.99,West,266,1.0,5.0,39,0.00,,CLR,0.00,VWS V14.01,2013-05-30 21:55:00,
2013-05-30 17:59:00,91.2,64.2,29.99,East,82,0.0,5.0,41,0.00,,CLR,0.00,VWS V14.01,2013-05-30 21:59:00,
2013-05-30 18:00:00,91.2,64.2,29.99,East,82,0.0,5.0,41,0.00,,CLR,0.00,VWS V14.01,2013-05-30 22:00:00,
2013-05-30 18:04:00,90.7,63.8,29.99,WSW,240,5.0,5.0,41,0.00,,CLR,0.00,VWS V14.01,2013-05-30 22:04:00,
2013-05-30 18:05:00,90.7,62.4,29.99,SW,214,6.0,6.0,39,0.00,,CLR,0.00,VWS V14.01,2013-05-30 22:05:00,
2013-05-30 18:09:00,90.3,61.3,29.99,WSW,241,1.0,6.0,38,0.00,,CLR,0.00,VWS V14.01,2013-05-30 22:09:00,
2013-05-30 18:10:00,90.3,62.7,29.99,WSW,246,6.0,6.0,40,0.00,,CLR,0.00,VWS V14.01,2013-05-30 22:10:00,
2013-05-30 18:14:00,90.1,63.9,30.00,WSW,242,0.0,6.0,42,0.00,,CLR,0.00,VWS V14.01,2013-05-30 22:14:00,
2013-05-30 18:15:00,90.1,63.9,30.00,WSW,251,1.0,6.0,42,0.00,,CLR,0.00,VWS V14.01,2013-05-30 22:15:00,
2013-05-30 18:19:00,90.1,62.5,30.00,SW,234,0.0,5.0,40,0.00,,CLR,0.00,VWS V14.01,2013-05-30 22:19:00,
2013-05-30 18:20:00,90.1,62.5,30.00,SW,234,0.0,5.0,40,0.00,,CLR,0.00,VWS V14.01,2013-05-30 22:20:00,
2013-05-30 18:24:00,89.9,63.1,30.00,SW,233,2.0,5.0,41,0.00,,CLR,0.00,VWS V14.01,2013-05-30 22:24:00,
2013-05-30 18:25:00,89.9,63.1,30.00,SW,235,1.0,5.0,41,0.00,,CLR,0.00,VWS V14.01,2013-05-30 22:25:00,
2013-05-30 18:29:00,89.7,63.6,29.99,WSW,254,0.0,8.0,42,0.00,,CLR,0.00,VWS V14.01,2013-05-30 22:29:00,
2013-05-30 18:30:00,89.7,63.6,29.99,WSW,254,0.0,8.0,42,0.00,,CLR,0.00,VWS V14.01,2013-05-30 22:30:00,
2013-05-30 18:34:00,89.9,63.8,29.99,WNW,282,0.0,2.0,42,0.00,,CLR,0.00,VWS V14.01,2013-05-30 22:34:00,
2013-05-30 18:35:00,89.9,63.8,29.99,WNW,282,0.0,2.0,42,0.00,,CLR,0.00,VWS V14.01,2013-05-30 22:35:00,
2013-05-30 18:39:00,89.9,63.8,29.99,West,277,0.0,4.0,42,0.00,,CLR,0.00,VWS V14.01,2013-05-30 22:39:00,
2013-05-30 18:40:00,89.9,64.4,29.99,West,277,0.0,4.0,43,0.00,,CLR,0.00,VWS V14.01,2013-05-30 22:40:00,
2013-05-30 18:44:00,89.9,65.1,29.99,WSW,237,1.0,7.0,44,0.00,,CLR,0.00,VWS V14.01,2013-05-30 22:44:00,
2013-05-30 18:45:00,89.7,63.6,29.99,WSW,237,2.0,7.0,42,0.00,,CLR,0.00,VWS V14.01,2013-05-30 22:45:00,
2013-05-30 18:49:00,89.3,64.6,29.99,WSW,240,0.0,4.0,44,0.00,,CLR,0.00,VWS V14.01,2013-05-30 22:49:00,
2013-05-30 18:50:00,89.3,64.6,29.99,WSW,240,1.0,4.0,44,0.00,,CLR,0.00,VWS V14.01,2013-05-30 22:50:00,
2013-05-30 18:54:00,88.4,65.0,29.99,West,266,0.0,5.0,46,0.00,,CLR,0.00,VWS V14.01,2013-05-30 22:54:00,
2013-05-30 18:55:00,88.2,64.8,29.99,West,266,1.0,5.0,46,0.00,,CLR,0.00,VWS V14.01,2013-05-30 22:55:00,
2013-05-30 18:59:00,87.6,63.7,30.00,SSW,203,2.0,6.0,45,0.00,,CLR,0.00,VWS V14.01,2013-05-30 22:59:00,
2013-05-30 19:00:00,87.6,63.7,30.00,SSW,203,1.0,6.0,45,0.00,,CLR,0.00,VWS V14.01,2013-05-30 23:00:00,
2013-05-30 19:04:00,87.2,64.5,30.00,WSW,239,0.0,4.0,47,0.00,,CLR,0.00,VWS V14.01,2013-05-30 23:04:00,
2013-05-30 19:05:00,87.2,64.5,30.00,WSW,239,0.0,4.0,47,0.00,,CLR,0.00,VWS V14.01,2013-05-30 23:05:00,
2013-05-30 19:09:00,86.7,65.9,30.00,WSW,240,0.0,2.0,50,0.00,,CLR,0.00,VWS V14.01,2013-05-30 23:09:00,
2013-05-30 19:10:00,86.7,64.7,30.00,WSW,238,2.0,2.0,48,0.00,,CLR,0.00,VWS V14.01,2013-05-30 23:10:00,
2013-05-30 19:14:00,86.3,63.1,30.00,WSW,252,0.0,4.0,46,0.00,,CLR,0.00,VWS V14.01,2013-05-30 23:14:00,
2013-05-30 19:15:00,86.3,63.1,30.00,WSW,252,0.0,4.0,46,0.00,,CLR,0.00,VWS V14.01,2013-05-30 23:15:00,
2013-05-30 19:19:00,85.9,64.0,30.00,South,179,0.0,1.0,48,0.00,,CLR,0.00,VWS V14.01,2013-05-30 23:19:00,
2013-05-30 19:20:00,85.9,64.5,30.00,South,179,0.0,1.0,49,0.00,,CLR,0.00,VWS V14.01,2013-05-30 23:20:00,
2013-05-30 19:24:00,85.7,64.4,30.00,South,189,1.0,3.0,49,0.00,,CLR,0.00,VWS V14.01,2013-05-30 23:24:00,
2013-05-30 19:25:00,85.5,64.2,30.00,South,189,0.0,3.0,49,0.00,,CLR,0.00,VWS V14.01,2013-05-30 23:25:00,
2013-05-30 19:29:00,85.1,64.4,30.00,SSW,205,0.0,2.0,50,0.00,,CLR,0.00,VWS V14.01,2013-05-30 23:29:00,
2013-05-30 19:30:00,85.1,64.4,30.00,SW,231,5.0,5.0,50,0.00,,CLR,0.00,VWS V14.01,2013-05-30 23:30:00,
2013-05-30 19:34:00,84.9,64.2,30.00,WSW,248,2.0,6.0,50,0.00,,CLR,0.00,VWS V14.01,2013-05-30 23:34:00,
2013-05-30 19:35:00,84.7,64.0,30.00,WSW,248,0.0,6.0,50,0.00,,CLR,0.00,VWS V14.01,2013-05-30 23:35:00,
2013-05-30 19:39:00,84.7,64.6,30.00,SW,233,5.0,6.0,51,0.00,,CLR,0.00,VWS V14.01,2013-05-30 23:39:00,
2013-05-30 19:40:00,84.7,65.1,30.00,SW,229,1.0,6.0,52,0.00,,CLR,0.00,VWS V14.01,2013-05-30 23:40:00,
2013-05-30 19:44:00,84.5,65.0,30.01,WSW,244,2.0,5.0,52,0.00,,CLR,0.00,VWS V14.01,2013-05-30 23:44:00,
2013-05-30 19:45:00,84.5,65.5,30.01,WSW,244,0.0,5.0,53,0.00,,CLR,0.00,VWS V14.01,2013-05-30 23:45:00,
2013-05-30 19:49:00,84.3,65.9,30.01,WSW,257,1.0,8.0,54,0.00,,CLR,0.00,VWS V14.01,2013-05-30 23:49:00,
2013-05-30 19:50:00,84.3,65.9,30.01,WSW,257,1.0,8.0,54,0.00,,CLR,0.00,VWS V14.01,2013-05-30 23:50:00,
2013-05-30 19:54:00,84.0,65.6,30.01,SW,219,0.0,8.0,54,0.00,,CLR,0.00,VWS V14.01,2013-05-30 23:54:00,
2013-05-30 19:55:00,84.0,65.6,30.01,SW,221,2.0,8.0,54,0.00,,CLR,0.00,VWS V14.01,2013-05-30 23:55:00,
2013-05-30 19:59:00,83.6,65.7,30.01,WSW,252,5.0,6.0,55,0.00,,CLR,0.00,VWS V14.01,2013-05-30 23:59:00,
2013-05-30 20:00:00,83.6,65.7,30.01,WSW,238,2.0,6.0,55,0.00,,CLR,0.00,VWS V14.01,2013-05-31 00:00:00,
2013-05-30 20:04:00,83.4,66.1,30.01,WSW,244,0.0,6.0,56,0.00,,CLR,0.00,VWS V14.01,2013-05-31 00:04:00,
2013-05-30 20:05:00,83.4,66.1,30.01,WSW,244,1.0,6.0,56,0.00,,CLR,0.00,VWS V14.01,2013-05-31 00:05:00,
2013-05-30 20:09:00,83.2,65.9,30.01,SW,218,4.0,7.0,56,0.00,,CLR,0.00,VWS V14.01,2013-05-31 00:09:00,
2013-05-30 20:10:00,83.2,65.9,30.01,WSW,240,4.0,7.0,56,0.00,,CLR,0.00,VWS V14.01,2013-05-31 00:10:00,
2013-05-30 20:14:00,83.0,65.7,30.01,SW,229,1.0,8.0,56,0.00,,CLR,0.00,VWS V14.01,2013-05-31 00:14:00,
2013-05-30 20:15:00,82.8,66.0,30.01,SW,229,1.0,8.0,57,0.00,,CLR,0.00,VWS V14.01,2013-05-31 00:15:00,
2013-05-30 20:19:00,82.6,65.8,30.01,SW,221,4.0,6.0,57,0.00,,CLR,0.00,VWS V14.01,2013-05-31 00:19:00,
2013-05-30 20:20:00,82.6,65.8,30.01,SW,225,2.0,6.0,57,0.00,,CLR,0.00,VWS V14.01,2013-05-31 00:20:00,
2013-05-30 20:24:00,82.2,65.5,30.01,WSW,241,4.0,5.0,57,0.00,,CLR,0.00,VWS V14.01,2013-05-31 00:24:00,
2013-05-30 20:25:00,82.2,65.5,30.01,WSW,241,2.0,5.0,57,0.00,,CLR,0.00,VWS V14.01,2013-05-31 00:25:00,
2013-05-30 20:29:00,82.0,65.8,30.00,SW,224,0.0,6.0,58,0.00,,CLR,0.00,VWS V14.01,2013-05-31 00:29:00,
2013-05-30 20:30:00,82.0,65.8,30.00,SW,226,1.0,6.0,58,0.00,,CLR,0.00,VWS V14.01,2013-05-31 00:30:00,
2013-05-30 20:34:00,81.8,66.1,30.00,WSW,242,0.0,4.0,59,0.00,,CLR,0.00,VWS V14.01,2013-05-31 00:34:00,
2013-05-30 20:35:00,81.6,65.9,30.00,WSW,242,1.0,4.0,59,0.00,,CLR,0.00,VWS V14.01,2013-05-31 00:35:00,
2013-05-30 20:39:00,81.4,66.2,30.00,SW,231,0.0,2.0,60,0.00,,CLR,0.00,VWS V14.01,2013-05-31 00:39:00,
2013-05-30 20:40:00,81.2,66.0,30.00,SW,231,0.0,2.0,60,0.00,,CLR,0.00,VWS V14.01,2013-05-31 00:40:00,
2013-05-30 20:44:00,80.9,66.2,30.00,SW,231,0.0,1.0,61,0.00,,CLR,0.00,VWS V14.01,2013-05-31 00:44:00,
2013-05-30 20:45:00,80.9,66.2,30.00,SW,231,0.0,1.0,61,0.00,,CLR,0.00,VWS V14.01,2013-05-31 00:45:00,
2013-05-30 20:49:00,80.5,66.3,30.00,SW,232,0.0,4.0,62,0.00,,CLR,0.00,VWS V14.01,2013-05-31 00:49:00,
2013-05-30 20:50:00,80.5,66.3,30.00,SW,232,0.0,4.0,62,0.00,,CLR,0.00,VWS V14.01,2013-05-31 00:50:00,
2013-05-30 20:54:00,80.1,66.4,30.00,SW,233,0.0,1.0,63,0.00,,CLR,0.00,VWS V14.01,2013-05-31 00:54:00,
2013-05-30 20:55:00,80.1,66.4,30.00,SW,231,0.0,5.0,63,0.00,,CLR,0.00,VWS V14.01,2013-05-31 00:55:00,
2013-05-30 20:59:00,79.6,66.4,30.00,SW,231,0.0,1.0,64,0.00,,CLR,0.00,VWS V14.01,2013-05-31 00:59:00,
2013-05-30 21:00:00,79.6,66.4,30.00,SW,231,0.0,1.0,64,0.00,,CLR,0.00,VWS V14.01,2013-05-31 01:00:00,
2013-05-30 21:04:00,79.2,66.4,30.00,WSW,240,0.0,4.0,65,0.00,,CLR,0.00,VWS V14.01,2013-05-31 01:04:00,
2013-05-30 21:05:00,79.2,66.4,30.00,WSW,240,0.0,4.0,65,0.00,,CLR,0.00,VWS V14.01,2013-05-31 01:05:00,
2013-05-30 21:09:00,79.0,66.2,30.00,SW,214,5.0,5.0,65,0.00,,CLR,0.00,VWS V14.01,2013-05-31 01:09:00,
2013-05-30 21:10:00,79.0,66.2,30.00,SW,214,0.0,5.0,65,0.00,,CLR,0.00,VWS V14.01,2013-05-31 01:10:00,
2013-05-30 21:14:00,78.8,66.1,30.02,WSW,239,0.0,2.0,65,0.00,,CLR,0.00,VWS V14.01,2013-05-31 01:14:00,
2013-05-30 21:15:00,78.8,66.1,30.02,WSW,239,0.0,2.0,65,0.00,,CLR,0.00,VWS V14.01,2013-05-31 01:15:00,
2013-05-30 21:19:00,78.6,66.3,30.02,WSW,239,0.0,0.0,66,0.00,,CLR,0.00,VWS V14.01,2013-05-31 01:19:00,
2013-05-30 21:20:00,78.6,66.3,30.02,WSW,239,0.0,0.0,66,0.00,,CLR,0.00,VWS V14.01,2013-05-31 01:20:00,
2013-05-30 21:24:00,78.5,66.2,30.02,SW,235,1.0,3.0,66,0.00,,CLR,0.00,VWS V14.01,2013-05-31 01:24:00,
2013-05-30 21:25:00,78.5,66.2,30.02,SW,235,0.0,3.0,66,0.00,,CLR,0.00,VWS V14.01,2013-05-31 01:25:00,
2013-05-30 21:29:00,78.5,66.2,30.02,SW,235,0.0,1.0,66,0.00,,CLR,0.00,VWS V14.01,2013-05-31 01:29:00,
2013-05-30 21:30:00,78.3,66.0,30.02,SW,235,0.0,1.0,66,0.00,,CLR,0.00,VWS V14.01,2013-05-31 01:30:00,
2013-05-30 21:34:00,78.1,66.3,30.02,SW,235,0.0,0.0,67,0.00,,CLR,0.00,VWS V14.01,2013-05-31 01:34:00,
2013-05-30 21:35:00,78.1,66.3,30.02,SW,235,0.0,1.0,67,0.00,,CLR,0.00,VWS V14.01,2013-05-31 01:35:00,
2013-05-30 21:39:00,78.1,66.7,30.02,SW,235,0.0,1.0,68,0.00,,CLR,0.00,VWS V14.01,2013-05-31 01:39:00,
2013-05-30 21:40:00,77.9,66.5,30.02,SW,235,0.0,1.0,68,0.00,,CLR,0.00,VWS V14.01,2013-05-31 01:40:00,
2013-05-30 21:44:00,77.7,66.3,30.02,SW,235,0.0,0.0,68,0.00,,CLR,0.00,VWS V14.01,2013-05-31 01:44:00,
2013-05-30 21:45:00,77.7,66.3,30.02,SW,235,0.0,0.0,68,0.00,,CLR,0.00,VWS V14.01,2013-05-31 01:45:00,
2013-05-30 21:49:00,77.4,66.0,30.02,SW,235,0.0,0.0,68,0.00,,CLR,0.00,VWS V14.01,2013-05-31 01:49:00,
2013-05-30 21:50:00,77.4,66.0,30.02,SW,235,0.0,0.0,68,0.00,,CLR,0.00,VWS V14.01,2013-05-31 01:50:00,
2013-05-30 21:54:00,76.8,65.9,30.02,SW,235,0.0,0.0,69,0.00,,CLR,0.00,VWS V14.01,2013-05-31 01:54:00,
2013-05-30 21:55:00,76.8,65.9,30.02,SW,235,0.0,0.0,69,0.00,,CLR,0.00,VWS V14.01,2013-05-31 01:55:00,
2013-05-30 21:59:00,76.5,66.0,30.02,SW,235,0.0,0.0,70,0.00,,CLR,0.00,VWS V14.01,2013-05-31 01:59:00,
2013-05-30 22:00:00,76.5,66.0,30.02,SW,235,0.0,0.0,70,0.00,,CLR,0.00,VWS V14.01,2013-05-31 02:00:00,
2013-05-30 22:04:00,76.1,65.6,30.02,SW,235,0.0,0.0,70,0.00,,CLR,0.00,VWS V14.01,2013-05-31 02:04:00,
2013-05-30 22:05:00,76.1,65.6,30.02,SW,235,0.0,0.0,70,0.00,,CLR,0.00,VWS V14.01,2013-05-31 02:05:00,
2013-05-30 22:09:00,75.8,65.7,30.02,SW,235,0.0,0.0,71,0.00,,CLR,0.00,VWS V14.01,2013-05-31 02:09:00,
2013-05-30 22:10:00,75.8,66.1,30.02,SW,235,0.0,0.0,72,0.00,,CLR,0.00,VWS V14.01,2013-05-31 02:10:00,
2013-05-30 22:14:00,75.4,66.2,30.02,SW,235,0.0,0.0,73,0.00,,CLR,0.00,VWS V14.01,2013-05-31 02:14:00,
2013-05-30 22:15:00,75.4,66.2,30.02,SW,235,0.0,0.0,73,0.00,,CLR,0.00,VWS V14.01,2013-05-31 02:15:00,
2013-05-30 22:19:00,75.1,65.9,30.02,SW,235,0.0,0.0,73,0.00,,CLR,0.00,VWS V14.01,2013-05-31 02:19:00,
2013-05-30 22:20:00,75.1,65.9,30.02,SW,235,0.0,0.0,73,0.00,,CLR,0.00,VWS V14.01,2013-05-31 02:20:00,
2013-05-30 22:24:00,74.9,66.1,30.02,SW,235,0.0,0.0,74,0.00,,CLR,0.00,VWS V14.01,2013-05-31 02:24:00,
2013-05-30 22:25:00,74.7,65.9,30.02,SW,235,0.0,0.0,74,0.00,,CLR,0.00,VWS V14.01,2013-05-31 02:25:00,
2013-05-30 22:29:00,74.6,65.8,30.03,SW,235,0.0,0.0,74,0.00,,CLR,0.00,VWS V14.01,2013-05-31 02:29:00,
2013-05-30 22:30:00,74.6,65.8,30.03,SW,235,0.0,0.0,74,0.00,,CLR,0.00,VWS V14.01,2013-05-31 02:30:00,
2013-05-30 22:34:00,74.4,66.0,30.03,SW,235,0.0,0.0,75,0.00,,CLR,0.00,VWS V14.01,2013-05-31 02:34:00,
2013-05-30 22:35:00,74.4,66.0,30.03,SW,235,0.0,0.0,75,0.00,,CLR,0.00,VWS V14.01,2013-05-31 02:35:00,
2013-05-30 22:39:00,74.2,65.8,30.03,SW,235,0.0,0.0,75,0.00,,CLR,0.00,VWS V14.01,2013-05-31 02:39:00,
2013-05-30 22:40:00,74.0,65.6,30.03,SW,235,0.0,0.0,75,0.00,,CLR,0.00,VWS V14.01,2013-05-31 02:40:00,
2013-05-30 22:44:00,73.9,65.9,30.03,SW,235,0.0,0.0,76,0.00,,CLR,0.00,VWS V14.01,2013-05-31 02:44:00,
2013-05-30 22:45:00,73.9,65.9,30.03,SW,235,0.0,0.0,76,0.00,,CLR,0.00,VWS V14.01,2013-05-31 02:45:00,
2013-05-30 22:49:00,73.7,65.7,30.03,SW,235,0.0,0.0,76,0.00,,CLR,0.00,VWS V14.01,2013-05-31 02:49:00,
2013-05-30 22:50:00,73.7,65.7,30.03,SW,235,0.0,0.0,76,0.00,,CLR,0.00,VWS V14.01,2013-05-31 02:50:00,
2013-05-30 22:54:00,73.5,65.9,30.03,SW,235,0.0,0.0,77,0.00,,CLR,0.00,VWS V14.01,2013-05-31 02:54:00,
2013-05-30 22:55:00,73.5,65.9,30.03,SW,235,0.0,0.0,77,0.00,,CLR,0.00,VWS V14.01,2013-05-31 02:55:00,
2013-05-30 22:59:00,73.3,66.0,30.03,SW,235,0.0,0.0,78,0.00,,CLR,0.00,VWS V14.01,2013-05-31 02:59:00,
2013-05-30 23:00:00,73.3,66.0,30.03,SW,235,0.0,0.0,78,0.00,,CLR,0.00,VWS V14.01,2013-05-31 03:00:00,
2013-05-30 23:04:00,73.0,65.7,30.03,SW,235,0.0,0.0,78,0.00,,CLR,0.00,VWS V14.01,2013-05-31 03:04:00,
2013-05-30 23:05:00,73.0,65.7,30.03,SW,235,0.0,0.0,78,0.00,,CLR,0.00,VWS V14.01,2013-05-31 03:05:00,
2013-05-30 23:09:00,72.8,65.9,30.03,SW,235,0.0,0.0,79,0.00,,CLR,0.00,VWS V14.01,2013-05-31 03:09:00,
2013-05-30 23:10:00,72.8,65.9,30.03,SW,235,0.0,0.0,79,0.00,,CLR,0.00,VWS V14.01,2013-05-31 03:10:00,
2013-05-30 23:14:00,72.7,65.8,30.03,SW,235,0.0,0.0,79,0.00,,CLR,0.00,VWS V14.01,2013-05-31 03:14:00,
2013-05-30 23:15:00,72.7,65.8,30.03,SW,235,0.0,0.0,79,0.00,,CLR,0.00,VWS V14.01,2013-05-31 03:15:00,
2013-05-30 23:18:00,72.3,65.8,30.03,SW,235,0.0,0.0,80,0.00,,CLR,0.00,VWS V14.01,2013-05-31 03:18:00,
2013-05-30 23:20:00,72.3,65.8,30.03,SW,235,0.0,0.0,80,0.00,,CLR,0.00,VWS V14.01,2013-05-31 03:20:00,
2013-05-30 23:23:00,72.1,65.6,30.03,SW,235,0.0,0.0,80,0.00,,CLR,0.00,VWS V14.01,2013-05-31 03:23:00,
2013-05-30 23:25:00,72.1,65.6,30.03,SW,235,0.0,0.0,80,0.00,,CLR,0.00,VWS V14.01,2013-05-31 03:25:00,
2013-05-30 23:28:00,72.0,65.9,30.02,SW,235,0.0,0.0,81,0.00,,CLR,0.00,VWS V14.01,2013-05-31 03:28:00,
2013-05-30 23:30:00,72.0,65.9,30.02,SW,235,0.0,0.0,81,0.00,,CLR,0.00,VWS V14.01,2013-05-31 03:30:00,
2013-05-30 23:33:00,71.8,66.0,30.02,SW,235,0.0,0.0,82,0.00,,CLR,0.00,VWS V14.01,2013-05-31 03:33:00,
2013-05-30 23:35:00,71.8,66.0,30.02,SW,235,0.0,0.0,82,0.00,,CLR,0.00,VWS V14.01,2013-05-31 03:35:00,
2013-05-30 23:38:00,71.6,65.8,30.02,SW,235,0.0,0.0,82,0.00,,CLR,0.00,VWS V14.01,2013-05-31 03:38:00,
2013-05-30 23:40:00,71.6,65.8,30.02,SW,235,0.0,0.0,82,0.00,,CLR,0.00,VWS V14.01,2013-05-31 03:40:00,
2013-05-30 23:43:00,71.5,66.1,30.03,SW,235,0.0,0.0,83,0.00,,CLR,0.00,VWS V14.01,2013-05-31 03:43:00,
2013-05-30 23:45:00,71.5,66.1,30.03,SW,235,0.0,0.0,83,0.00,,CLR,0.00,VWS V14.01,2013-05-31 03:45:00,
2013-05-30 23:48:00,71.3,65.9,30.03,SW,235,0.0,0.0,83,0.00,,CLR,0.00,VWS V14.01,2013-05-31 03:48:00,
2013-05-30 23:50:00,71.3,65.9,30.03,SW,235,0.0,0.0,83,0.00,,CLR,0.00,VWS V14.01,2013-05-31 03:50:00,
2013-05-30 23:53:00,71.1,66.0,30.03,SW,235,0.0,0.0,84,0.00,,CLR,0.00,VWS V14.01,2013-05-31 03:53:00,
2013-05-30 23:55:00,71.1,66.0,30.03,SW,235,0.0,0.0,84,0.00,,CLR,0.00,VWS V14.01,2013-05-31 03:55:00,
2013-05-30 23:58:00,71.1,66.0,30.03,SW,235,0.0,0.0,84,0.00,,CLR,0.00,VWS V14.01,2013-05-31 03:58:00,